STARLINK-11413, 62593

Orbit data source: Space-Track

STARLINK-11413, 62593 is a payload satellite owned by SpaceX/Seattle (US) in LEO that was launched on Mon, 13 Jan 2025 UTC via an FALCON 9 launch vehicle from the Air Force Eastern Test Range (AFETR). Payload-class satellites include a variety of spacecraft equipped with specific instruments for various scientific and technological missions. These include communications satellites like Starlink; space stations such as the ISS; scientific satellites like the Hubble; Earth observation satellites from companies like Planet Labs, Umbra, and HawkEye 360; GPS; miniature CubeSats for education and research; and military/defense satellites.

Loading next visibility...
Identifier
62593, 2025-008G
Orbit
LEO
Country
Flag of USUS
Related business
Manufacturer
SpaceX/Seattle
Mission
Operational Commercial Communications
Bus & Motor
STARLINK V2MD, Unknown motor
Mass
960 kg wet, ~910 kg dry
Launch date (UTC)
2025-01-13 (1 year ago)
Launch vehicle
FALCON 9
Launch site
Air Force Eastern Test Range (AFETR)
Object type
Payload
Rocket body
Debris
Shape & HBR
Box + 2 Pan, 18.1 m
Radar Cross Section
36.964 m², Large (>1 m²)

Expand to show TLE details & history
Last TLE update: 16 hours ago

TLE from 16 hours ago
0 STARLINK-11413
1 62593U 25008G   26120.52636877  .00248295  00000-0  18758-2 0  9996
2 62593  42.9989 173.9906 0000945 277.2351  82.8409 15.70908958 75339
Epoch: 2026-04-30T12:37Z
TLE epoch observation values (Epoch: 2026-04-30T12:37:58.261Z)
Latitude
-0.00004°
Longitude
126.02609°
Altitude
355.99 km
Speed
7.697 km/s
True Right ascension
11h 35m 57s
True Declination
0° 00' 00"
Sunlit
Object was in full shadow at epoch
Visualization orbit readout
Latitude
Unknown
Longitude
Unknown
Altitude
Unknown
Speed
Unknown
Apparent Right ascension
Unknown
Apparent Declination
Unknown
Sunlit
N/A
Visualization observer readout
Local Sidereal Time
12:16:35
Azimuth
Unknown
Elevation
Unknown
Doppler factor
Unknown
Orbital elements
Apogee altitude
358.916 km
Perigee altitude
357.643 km
Semi-major axis
6,736.417 km
Eccentricity
0.00009
Inclination
42.9989°
RAAN
173.9906°
Arg. of periapsis
277.2351°
True anomaly
82.85164°
Mean anomaly
82.8409°
Eccentric anomaly
82.84627°
Mean motion
3.92554 °/min
Orbital period
91.71 mins
BSTAR
0.0018758
Loading maneuver chart data...
Computing Atmospheric mass density...
Loading historical data...
Loading historical data...
Loading historical data...
Loading historical data...
Loading historical data...
Loading historical data...
Loading historical data...

Documentation

Showing up to 5 results
|